Regional Weather Roundup
Issued by NWS

Home | Current Version | Previous Version | Graphics & Text | Print | Product List | Glossary On
Versions: 1 2 3 4 5 6 7 8 9 10 11 12 13 14 15 16 17 18 19 20 21 22 23 24 25 26 27 28 29 30 31 32 33 34 35 36 37 38 39 40 41 42 43 44 45 46 47 48 49 50
000
ASUS43 KOAX 031202
RWRNE

WEATHER ROUNDUP FOR NEBRASKA
NATIONAL WEATHER SERVICE OMAHA NE
700 AM CDT FRI JUL 03 2015

NOTES: SATELLITE DATA IS BEING USED TO AUGMENT CLOUD COVER ABOVE
       12000 FEET.
       "FAIR" INDICATES FEW OR NO CLOUDS BELOW 12,000 FEET WITH NO
       SIGNIFICANT WEATHER AND/OR OBSTRUCTIONS TO VISIBILITY.

  * THESE STATIONS DO NOT REPORT WEATHER SUCH AS RAIN...SNOW OR FOG.

NEZ001>004-019>022-054>056-031300-
NEBRASKA PANHANDLE

CITY           SKY/WX    TMP DP  RH WIND       PRES   REMARKS
SCOTTSBLUFF    CLOUDY    62  59  90 NE3       30.13F
6HR MIN TEMP:  61; 6HR MAX TEMP:  68;

ALLIANCE       PTCLDY    58  56  93 W5        30.12R FOG
6HR MIN TEMP:  56; 6HR MAX TEMP:  62;

CHADRON        MOCLDY    57  55  93 SW3       30.10S FOG
6HR MIN TEMP:  56; 6HR MAX TEMP:  63;

KIMBALL          N/A    N/A N/A N/A MISG        N/A
SIDNEY         PTCLDY    59  58  96 NW5       30.16R
6HR MIN TEMP:  56; 6HR MAX TEMP:  62;

$$

NEZ057>060-069>072-079>082-031300-
SOUTHWEST NEBRASKA

CITY           SKY/WX    TMP DP  RH WIND       PRES   REMARKS
NORTH PLATTE   CLEAR     56  55  97 CALM      30.08R
6HR MIN TEMP:  56; 6HR MAX TEMP:  62;

IMPERIAL       MOCLDY    63  58  83 W5        30.10R
6HR MIN TEMP:  61; 6HR MAX TEMP:  64;

MCCOOK         CLEAR     61  59  93 CALM      30.06R FOG
6HR MIN TEMP:  60; 6HR MAX TEMP:  68;

$$

NEZ005>010-023>029-035>040-094-031300-
NORTH CENTRAL NEBRASKA

CITY           SKY/WX    TMP DP  RH WIND       PRES   REMARKS
VALENTINE      PTCLDY    57  55  93 NW3       30.06R
6HR MIN TEMP:  55; 6HR MAX TEMP:  61;

AINSWORTH      FOG       56  56 100 CALM      30.06R VSB 1
BROKEN BOW     CLOUDY    64  61  90 NW3       30.06R
6HR MIN TEMP:  60; 6HR MAX TEMP:  64; 6HR PCP: TRACE;

ORD            CLOUDY    60  58  92 CALM      30.03R
6HR MIN TEMP:  55; 6HR MAX TEMP:  64;

$$

NEZ041-046>049-061>064-073>077-083>087-031300-
SOUTH CENTRAL NEBRASKA

CITY           SKY/WX    TMP DP  RH WIND       PRES   REMARKS
GRAND ISLAND   CLOUDY    64  62  93 N5        30.04R FOG
6HR MIN TEMP:  64; 6HR MAX TEMP:  66;

AURORA         CLOUDY    65  65 100 NE8       30.03R FOG
HASTINGS       CLOUDY    66  63  90 N8        30.02R FOG
6HR MIN TEMP:  65; 6HR MAX TEMP:  67;

KEARNEY *      CLOUDY    63  59  88 N7        30.04R
$$

NEZ011>018-030>034-042>045-031300-
NORTHEAST NEBRASKA

CITY           SKY/WX    TMP DP  RH WIND       PRES   REMARKS
NORFOLK        CLOUDY    64  62  93 CALM      30.02S FOG
6HR MIN TEMP:  62; 6HR MAX TEMP:  65;

COLUMBUS *     CLOUDY    63  55  77 CALM      30.02R
FREMONT        CLEAR     60  55  83 CALM      30.01S
TEKAMAH        CLEAR     57  55  93 N5        30.01S
6HR MIN TEMP:  55; 6HR MAX TEMP:  61;

$$

NEZ050>053-065>068-078-088>093-031300-
SOUTHEAST NEBRASKA

CITY           SKY/WX    TMP DP  RH WIND       PRES   REMARKS
LINCOLN        CLOUDY    64  59  83 N6        30.01R
6HR MIN TEMP:  64; 6HR MAX TEMP:  69;

OMAHA EPPLEY   SUNNY     57  56  96 N6        30.01R
6HR MIN TEMP:  56; 6HR MAX TEMP:  64;

FALLS CITY     CLOUDY    64  61  90 N5        29.97R
6HR MIN TEMP:  63; 6HR MAX TEMP:  66; 6HR PCP:  0.01;

$$

NEZ044-045-051>053-067-031300-
OMAHA AREA

CITY           SKY/WX    TMP DP  RH WIND       PRES   REMARKS
OMAHA EPPLEY   SUNNY     57  56  96 N6        30.01R
6HR MIN TEMP:  56; 6HR MAX TEMP:  64;

FREMONT        CLEAR     60  55  83 CALM      30.01S
OFFUTT AFB     CLEAR     57  55  91 W3        30.00R
$$



USA.gov is the U.S. government's official web portal to all federal, state and local government web resources and services.